Wind_Speed
3 4 5 7 8 9 10 11 12 13 13 14 14 15 15 16 16 16 16 15 15 14 14 13 12 11 10 8 8 7 4 4 4 3 1 1 2 2 3 4 6 8 8 7 6 7 8 13 16 16 16 16 15 11 8 4 6 7 8 7 8 10 11 13 13 11 12 14 14 11 13 15 14 10 6 6 4 3 4 1 2 3 4 5 8 12 13 15
1 2 2 3 4 5 6 6 7 8 9 10 11 12 13 14 15 16 16 16 16 15 15 15 14 13 12 10 9 8 7 5 5 4 1 1 3 3 2 3 4 5 7 6 5 4 2 11 13 14 15 15 15 14 10 5 7 7 9 7 7 9 9 12 13 12 12 13 13 12 14 16 14 13 9 9 5 4 4 3 3 3 7 8 11 13 13 13
2 2 3 3 3 3 4 4 4 4 5 5 6 7 8 9 10 12 13 14 14 15 15 15 15 15 13 12 10 9 8 7 6 4 2 2 3 3 2 2 3 3 5 4 4 1 2 11 12 12 13 13 16 15 11 7 7 7 7 7 7 8 8 9 10 12 12 13 14 15 16 14 12 12 10 9 6 5 5 5 4 5 8 10 12 13 12 13
3 3 3 4 4 4 4 4 4 4 4 4 4 4 4 5 6 7 8 9 10 12 13 15 15 15 14 13 11 9 7 8 8 5 3 2 3 3 2 2 2 2 3 4 5 4 7 11 10 11 12 13 16 15 11 6 7 7 6 6 6 7 9 9 9 11 13 14 15 16 16 14 11 9 10 10 8 6 8 6 0 5 7 10 13 13 12 13
4 4 4 4 4 4 5 5 5 5 5 5 4 4 4 4 5 5 6 6 7 8 9 11 13 14 14 12 11 10 8 7 9 8 5 4 3 3 2 3 2 3 2 3 6 7 10 10 9 12 12 13 16 14 11 7 5 5 6 6 5 6 6 8 10 11 13 14 15 15 15 15 11 9 10 9 8 5 5 1 3 5 6 8 12 13 13 13
4 5 5 5 5 5 5 5 5 5 5 5 5 5 5 4 4 5 5 5 6 6 6 7 9 12 13 12 11 12 11 7 8 10 8 6 3 3 4 3 2 2 2 3 5 7 12 12 10 11 11 13 16 13 11 9 7 4 6 6 5 6 5 7 9 10 12 14 15 14 13 15 11 11 11 7 8 5 3 2 3 4 7 8 11 12 13 12
5 5 5 5 6 5 5 5 5 5 6 6 6 6 6 5 5 5 5 5 5 6 6 6 7 8 10 12 12 14 16 11 10 9 7 6 3 3 4 3 1 1 3 3 5 6 11 13 10 9 10 12 14 14 11 8 8 5 5 6 6 8 7 7 7 8 12 13 13 13 12 13 10 12 12 8 8 5 4 3 1 4 8 8 11 12 14 13
6 6 6 6 6 6 6 6 6 6 6 6 6 6 6 6 6 5 5 5 6 6 5 6 6 6 8 10 12 14 17 14 8 6 4 5 4 3 4 4 1 2 5 6 8 10 12 14 11 8 9 11 11 13 11 8 7 5 6 7 8 9 8 6 7 8 10 12 12 12 11 12 10 11 11 8 8 4 5 7 2 4 8 8 10 12 14 14
7 7 7 7 7 7 7 7 7 6 7 7 6 6 6 7 6 6 6 6 6 6 6 6 6 6 6 8 10 10 14 15 11 9 7 7 5 3 5 5 2 3 8 10 12 13 13 14 12 7 7 10 10 11 10 10 9 8 10 10 8 8 7 5 6 7 7 10 12 13 11 10 12 12 10 9 9 4 6 9 3 3 7 8 9 11 12 13
8 8 8 8 8 8 8 8 8 7 8 8 7 7 7 7 7 7 7 7 7 7 7 6 6 6 5 6 7 9 14 19 17 14 12 9 6 5 5 5 4 5 10 9 12 12 11 13 13 5 4 8 10 8 7 9 11 11 12 14 12 11 8 5 6 7 6 9 11 13 12 10 13 13 12 13 12 5 6 9 5 2 4 6 9 9 8 8
10 9 9 9 9 9 9 9 8 8 9 9 8 8 8 8 8 8 7 8 7 7 7 6 6 6 4 4 3 10 16 19 19 17 15 12 8 6 5 6 5 6 10 9 10 9 8 11 12 2 6 4 8 6 5 6 7 9 8 10 11 11 10 7 3 6 7 8 9 13 13 12 15 16 15 16 14 10 8 9 8 3 2 5 8 9 7 8
11 11 10 10 10 10 10 9 9 9 10 10 10 9 9 9 9 9 9 9 8 8 8 7 7 5 3 1 5 12 17 18 18 18 17 15 11 9 8 7 7 8 10 10 7 5 7 8 6 3 8 5 5 5 4 4 3 5 5 5 6 6 7 7 4 4 7 8 8 11 13 13 17 19 18 18 15 15 14 10 9 6 4 5 8 8 7 10
12 12 12 11 11 11 11 10 10 10 10 10 11 11 11 10 10 10 10 10 10 9 8 8 7 6 4 3 9 14 17 18 16 15 16 17 14 13 11 9 9 10 12 11 6 4 6 3 3 8 8 5 4 6 3 3 3 1 4 4 4 3 4 5 3 4 6 7 7 9 10 11 17 20 19 20 17 17 18 14 10 8 9 9 10 9 8 11
13 13 13 13 13 12 12 12 11 10 10 11 11 12 12 11 11 11 11 11 11 11 10 9 8 6 4 5 12 14 13 15 13 10 14 16 16 15 14 12 12 11 12 12 7 5 2 5 9 11 10 5 5 9 6 5 5 2 4 3 2 0 1 2 2 4 6 6 7 9 8 8 14 19 22 23 19 18 20 19 14 11 13 14 12 10 10 11
14 14 14 14 14 14 13 13 12 12 11 11 11 12 12 13 12 12 12 12 12 13 12 11 10 8 5 5 11 14 11 9 5 6 10 12 15 15 14 13 12 11 12 14 10 5 4 7 12 13 13 7 5 8 9 7 7 4 2 2 5 4 3 4 3 4 5 5 8 9 7 7 11 17 22 24 22 22 23 21 19 16 16 16 13 13 11 11
16 15 15 15 15 15 15 14 14 13 13 12 12 12 12 13 14 14 13 13 13 13 14 13 11 9 6 5 7 11 10 5 3 5 7 10 12 13 13 13 12 10 11 14 12 5 4 8 11 14 13 9 6 7 10 11 9 6 4 4 7 7 7 6 4 5 7 7 9 10 8 7 8 13 19 23 24 25 25 23 22 19 17 16 15 16 14 13
18 17 17 16 15 15 15 15 15 15 14 13 13 13 13 14 14 15 14 14 14 14 16 14 12 11 8 6 5 7 7 5 7 9 7 8 11 12 16 15 10 8 8 9 9 6 8 10 11 13 13 11 10 10 14 16 14 12 8 6 7 8 9 8 6 7 10 9 9 9 9 7 7 9 13 18 23 25 27 26 24 22 19 19 18 17 17 14
19 19 19 18 17 16 15 15 15 15 15 15 14 14 14 15 16 16 15 16 15 15 16 15 13 11 8 8 7 5 4 3 7 10 10 7 10 13 18 16 8 6 5 6 8 9 11 11 11 12 12 15 16 17 21 17 13 15 10 8 9 10 10 9 7 8 9 9 10 10 9 8 7 8 9 13 19 24 27 26 26 24 21 21 20 18 17 15
18 19 19 19 19 18 17 16 15 15 15 15 14 14 15 16 17 17 17 17 16 16 16 15 13 10 6 7 9 9 6 3 5 9 9 7 9 13 17 16 10 10 10 9 9 10 10 10 11 14 17 21 22 22 24 17 11 12 8 5 9 10 9 6 6 7 8 8 10 10 9 7 7 8 9 11 17 24 25 24 26 27 24 23 21 20 20 17
16 17 19 20 20 19 18 17 16 15 14 15 15 14 15 17 17 19 20 18 17 17 17 17 16 13 10 8 11 12 8 4 4 6 5 4 10 15 18 18 15 15 15 11 10 8 9 12 13 17 22 24 22 20 21 19 17 16 12 6 7 12 10 6 8 8 8 8 7 8 7 6 5 6 7 9 15 21 24 24 26 27 27 26 24 23 22 18
15 16 17 18 19 20 19 18 17 15 14 14 14 14 15 16 17 20 22 20 18 19 18 18 18 15 13 12 13 13 11 9 7 7 5 4 10 17 19 21 20 19 18 13 11 9 10 16 17 19 22 20 16 15 16 18 18 20 21 12 6 11 12 9 11 10 9 9 5 6 7 6 5 6 9 10 13 17 21 24 26 26 27 27 26 24 22 19
14 15 16 17 18 19 19 19 17 15 15 15 14 13 15 15 16 20 24 22 18 18 18 18 19 16 12 14 16 15 15 15 12 10 9 7 13 18 19 22 24 22 18 14 15 16 18 21 18 16 17 16 14 15 16 20 21 22 24 18 8 10 12 13 15 13 12 9 6 6 5 5 5 5 8 8 9 12 16 21 23 24 24 26 26 24 22 20
14 14 15 15 16 17 18 18 17 16 15 16 15 14 15 15 16 18 21 23 19 16 19 20 19 18 12 14 18 19 18 17 14 12 12 12 15 18 19 22 23 21 19 17 16 18 20 16 15 13 14 16 19 21 23 25 25 24 26 23 12 11 14 15 16 17 14 8 6 8 7 7 8 9 10 7 6 10 13 17 20 21 22 24 24 22 22 21
14 14 15 15 15 15 16 17 16 16 17 17 17 15 15 15 16 16 17 22 22 15 14 17 19 21 14 12 19 23 18 16 15 12 14 15 16 18 21 21 20 20 20 21 18 18 18 14 9 11 14 16 19 20 23 26 21 17 24 24 14 11 13 14 14 16 16 11 7 9 11 14 14 14 12 10 10 12 15 18 19 20 21 22 23 22 21 20
14 14 15 15 14 14 14 14 15 16 18 18 17 15 13 14 14 14 14 18 22 16 11 16 20 20 14 15 23 23 18 17 16 14 16 17 16 18 20 20 21 20 19 20 19 21 20 14 10 14 14 15 18 17 18 22 19 13 18 19 16 14 13 15 16 15 19 18 14 12 10 13 17 19 14 13 13 13 16 19 20 20 21 24 25 23 21 19
14 14 15 14 13 13 12 12 13 16 18 16 14 11 9 9 10 10 10 13 17 13 8 12 14 12 14 21 25 21 17 19 17 16 19 19 16 15 17 20 22 20 17 15 18 21 19 13 12 16 17 17 21 21 16 16 17 15 16 16 16 16 14 15 18 19 20 16 12 17 15 9 14 19 16 16 15 13 15 16 18 20 21 25 26 24 22 20
14 14 15 14 12 12 12 9 11 15 16 13 10 7 6 6 5 5 7 9 9 8 6 7 10 9 10 16 24 24 16 13 17 21 21 19 17 16 16 20 23 22 20 16 18 21 16 11 13 15 18 20 23 23 15 13 14 16 19 17 14 13 16 19 19 20 20 11 6 17 22 12 12 14 14 18 17 15 17 15 15 19 20 22 25 25 24 20
15 14 15 14 11 11 11 7 10 15 14 12 9 8 7 5 2 1 2 2 3 5 5 2 7 9 6 9 21 27 17 9 11 15 19 20 20 21 19 19 21 20 21 21 23 22 16 16 16 15 17 20 18 16 13 11 12 15 16 15 15 15 17 21 23 23 20 13 7 16 23 13 12 14 11 17 22 19 19 17 14 16 18 20 22 24 25 22
14 14 15 14 12 11 10 7 9 13 13 12 11 9 6 3 3 3 1 1 1 4 3 1 4 6 6 10 16 22 20 14 7 5 15 23 23 23 21 17 17 17 18 23 25 21 18 19 17 16 17 17 14 13 12 12 14 16 13 12 16 15 10 11 18 22 19 15 11 15 24 16 8 13 14 17 22 19 16 16 13 13 15 18 20 22 23 22
14 13 14 13 12 11 9 6 7 12 12 12 11 8 6 4 5 4 1 2 2 2 4 4 5 5 6 11 14 16 19 18 10 5 13 23 24 24 21 15 15 18 19 22 24 23 21 20 19 19 18 15 14 15 16 16 17 16 13 13 14 13 10 6 12 19 17 11 9 9 18 19 8 8 17 17 11 6 8 12 13 13 14 16 18 20 21 21
14 13 13 12 12 10 8 5 7 12 13 13 12 8 7 7 8 5 2 4 4 2 4 6 8 11 10 10 11 14 17 18 16 12 12 21 25 25 25 20 17 19 22 24 25 25 24 22 21 20 18 15 15 16 16 18 20 18 14 13 11 9 10 6 11 16 11 5 9 6 7 18 13 5 9 9 5 1 6 10 11 11 13 14 16 19 21 20
13 12 12 12 11 9 7 6 7 11 13 14 12 10 10 9 9 9 5 4 2 2 5 8 10 15 15 11 9 10 14 16 19 20 16 19 28 27 26 25 22 19 21 26 26 25 26 26 22 18 17 17 18 17 15 16 19 21 18 16 10 2 0 3 3 6 5 5 11 9 4 11 14 8 4 5 6 8 8 9 9 8 9 10 11 14 18 18
12 12 11 11 9 8 7 5 6 10 13 14 12 12 12 8 7 13 13 6 2 9 10 13 14 16 18 16 13 11 15 16 15 20 19 17 24 28 26 25 24 21 19 21 23 22 24 26 26 23 20 19 21 21 19 16 17 20 18 14 10 3 3 2 3 1 3 8 12 11 7 6 8 8 7 5 7 10 8 9 9 6 5 6 7 10 14 16
12 12 10 9 8 6 6 5 6 9 11 12 12 12 14 10 6 8 10 6 8 13 12 16 17 16 21 17 14 14 19 21 15 16 20 18 21 28 29 27 25 23 20 18 18 20 19 19 21 25 24 21 23 25 22 19 16 17 17 13 11 9 5 4 4 2 5 9 11 10 6 5 6 4 3 4 7 9 8 8 9 7 6 5 6 9 13 15
12 12 10 8 7 5 4 3 5 8 10 11 12 13 16 15 9 5 4 5 8 14 15 17 14 13 25 19 14 13 15 19 18 16 18 20 22 25 29 30 25 22 22 20 18 19 22 21 18 19 21 21 23 25 23 20 17 16 18 15 13 13 12 9 7 7 9 6 6 6 2 5 8 7 8 9 8 8 7 8 8 7 8 9 10 12 14 15
12 11 9 7 7 5 3 1 3 7 9 9 11 15 18 16 10 5 3 5 9 18 22 18 13 6 20 19 17 16 16 17 17 17 20 20 22 24 26 29 26 22 22 22 21 19 19 22 19 15 18 21 24 25 22 21 18 16 20 19 16 15 16 14 8 7 8 3 4 7 7 10 13 11 11 10 8 8 7 6 6 6 10 12 13 13 13 13
12 10 9 9 7 6 4 1 2 6 8 9 12 15 17 17 13 10 8 9 11 18 21 19 16 9 5 8 9 8 12 20 17 17 21 21 22 24 26 29 27 23 21 20 24 22 18 21 20 17 19 19 22 27 23 21 18 18 22 22 18 15 16 13 6 3 3 2 5 10 16 21 18 14 15 13 10 9 7 5 6 8 11 13 13 12 10 10
11 8 9 10 8 7 7 4 2 4 6 8 11 14 15 16 15 12 11 12 13 16 16 17 17 10 7 6 8 8 5 14 18 19 21 20 22 25 27 29 27 25 22 18 22 23 21 23 20 15 18 15 13 24 25 20 19 22 23 18 14 12 11 12 8 3 3 2 1 5 15 22 20 16 19 19 14 10 8 8 9 8 9 11 12 10 7 6
10 7 7 8 8 11 11 6 4 5 6 8 10 12 13 14 11 7 7 10 15 18 17 17 16 12 10 11 10 9 7 4 7 15 20 18 19 21 24 29 29 27 24 21 23 22 20 21 18 11 13 10 15 24 26 21 20 24 22 16 15 13 9 10 12 9 7 3 1 4 7 14 17 16 16 18 16 12 9 10 10 8 7 8 8 8 7 6
10 8 6 8 11 14 13 8 4 5 4 5 8 9 9 10 6 2 5 13 16 18 16 15 16 16 16 13 11 11 8 8 11 9 12 14 18 18 18 23 27 27 24 22 24 25 21 20 20 13 6 10 23 24 24 21 18 23 24 20 19 17 12 10 13 16 12 3 3 4 1 8 18 18 14 15 16 11 8 10 9 7 7 7 7 9 10 9
9 8 8 10 13 15 14 9 5 6 9 11 12 11 10 11 8 4 10 17 16 14 12 13 16 16 17 16 15 15 12 12 12 11 10 10 15 19 18 19 23 25 25 25 27 28 26 23 23 19 9 15 26 25 21 18 13 16 22 24 22 18 15 8 7 16 17 7 6 9 3 6 17 19 17 16 15 11 9 9 9 8 9 8 8 10 12 13
7 6 7 9 12 15 15 11 8 10 14 16 16 15 14 16 16 15 17 20 17 13 9 11 13 13 14 15 16 17 15 15 15 13 12 9 6 10 12 13 20 25 25 27 28 25 26 26 24 21 14 13 17 19 20 19 11 10 16 22 21 18 16 12 8 11 11 5 9 13 7 7 14 18 20 18 14 12 11 10 9 9 10 9 9 10 12 13
4 4 5 5 8 11 12 9 7 10 15 16 14 14 14 14 15 17 17 19 19 16 11 7 7 10 13 14 16 17 15 15 16 14 15 13 8 10 13 11 13 26 26 24 26 26 26 25 22 18 14 14 13 12 17 21 17 15 15 18 20 18 17 17 14 9 9 10 13 11 4 8 16 17 20 20 15 12 10 10 9 9 9 10 11 11 11 11
4 6 7 6 3 6 5 5 8 10 12 13 12 11 8 6 10 14 14 13 15 17 15 11 7 8 14 15 15 13 12 11 12 11 14 15 12 10 10 9 3 16 17 15 19 25 28 26 22 14 6 9 12 8 13 22 22 18 16 18 21 19 16 18 16 10 10 12 13 8 5 14 21 21 21 19 15 13 11 10 9 9 11 11 11 10 10 9
6 7 9 10 5 1 3 7 9 10 10 11 11 10 7 5 6 11 11 12 12 14 14 15 15 10 13 15 14 10 8 10 9 8 12 17 16 11 6 5 2 4 9 10 8 13 24 26 24 18 7 5 6 3 7 17 18 15 15 18 20 18 17 19 16 10 8 13 17 14 14 21 25 23 21 18 16 15 13 11 10 11 11 11 11 9 8 6
8 6 7 9 6 4 7 8 6 6 8 10 10 12 10 8 7 10 10 12 12 10 11 12 17 17 13 14 14 13 12 11 9 8 12 16 17 13 7 6 2 5 7 11 6 8 19 22 20 19 16 13 11 8 8 9 8 10 15 18 19 18 20 19 17 14 10 12 16 15 15 24 28 25 22 21 18 15 12 10 9 9 9 10 9 7 5 4
12 8 4 5 6 7 8 9 7 5 5 7 10 12 11 8 10 13 14 11 11 9 9 8 10 15 14 14 15 15 16 14 10 9 8 10 15 16 8 5 5 8 6 11 10 9 13 16 15 14 13 13 11 11 10 7 8 11 13 19 22 21 22 20 16 15 13 12 15 15 15 20 27 28 25 24 21 15 11 9 8 7 7 7 6 4 3 3
15 12 7 4 6 7 7 11 11 9 6 4 6 6 7 8 9 10 11 11 8 8 7 5 5 8 9 9 12 15 17 16 13 10 7 7 12 16 15 8 5 5 7 11 12 8 7 7 11 10 9 8 8 9 10 9 9 11 13 16 19 19 21 20 15 13 15 16 15 18 18 18 23 27 26 22 19 14 11 8 7 7 7 5 3 2 3 4
16 15 10 6 6 6 7 9 9 7 6 4 1 2 6 9 8 8 8 8 7 6 5 4 6 8 8 7 8 13 16 15 13 12 9 7 8 9 13 11 4 5 8 8 9 9 7 2 4 8 10 6 3 6 9 9 10 12 13 12 11 11 12 15 16 14 13 17 15 18 21 16 16 21 20 16 13 12 10 9 8 9 8 6 3 2 4 4
16 15 11 7 6 4 3 4 3 2 3 1 1 2 6 9 9 5 5 5 4 3 3 4 5 9 10 9 8 7 9 10 12 14 13 10 6 6 7 6 3 6 7 5 7 8 9 3 3 6 11 8 3 4 5 5 7 11 13 11 9 8 7 10 15 14 17 17 15 19 22 17 14 16 15 14 14 12 10 9 8 8 8 6 3 3 4 4
17 16 12 6 5 3 3 4 5 5 3 2 3 0 5 9 9 7 3 2 4 5 5 5 4 7 11 12 12 11 10 10 12 14 14 13 10 8 7 4 2 5 5 3 8 5 4 2 5 4 7 8 6 4 4 4 5 8 9 10 10 10 11 12 12 14 20 19 19 25 25 21 20 19 15 16 16 13 9 8 7 6 7 6 2 2 4 4
18 17 15 10 3 4 6 5 7 8 3 2 1 4 3 6 8 8 6 5 4 4 7 7 4 5 11 14 15 15 14 15 16 16 15 15 14 14 13 9 6 7 8 4 4 4 2 5 9 8 5 3 4 6 7 6 5 5 6 7 9 11 12 16 16 14 14 14 23 29 24 20 22 21 19 20 19 15 11 8 6 4 4 5 2 3 4 3
Wind_Direction
239 246 248 250 251 252 253 254 256 256 257 258 258 257 256 255 254 254 252 249 247 245 243 243 241 238 234 231 229 227 216 203 189 184 253 272 242 282 342 2 17 23 37 61 94 105 70 48 47 43 42 33 24 21 19 76 132 141 144 146 143 138 143 153 160 158 146 143 138 132 137 139 138 135 158 177 158 127 129 141 15 99 142 149 149 155 158 155
265 261 259 255 256 256 255 257 258 259 262 263 264 264 263 262 261 260 259 257 253 248 245 242 240 238 235 234 231 227 221 206 188 188 227 260 237 260 304 350 7 16 25 44 87 136 36 38 44 40 41 36 29 30 32 72 121 131 143 150 142 137 149 161 164 154 146 144 134 132 137 142 145 141 176 204 185 166 153 205 261 195 171 153 154 163 161 159
294 286 278 272 271 268 266 264 263 264 265 265 267 267 266 266 265 264 263 262 260 256 251 245 242 238 235 233 231 229 220 203 192 202 229 239 238 253 275 345 347 0 16 38 71 157 42 44 47 41 40 40 33 33 43 73 120 128 143 150 137 141 159 152 154 156 145 141 135 136 140 144 150 151 184 206 178 193 248 274 256 196 179 151 154 165 162 160
306 297 291 286 283 280 279 278 276 275 273 272 269 267 268 268 268 267 266 266 265 262 257 252 246 240 235 229 228 227 214 202 205 211 189 181 226 239 265 330 329 347 2 36 54 65 60 46 46 50 43 43 38 34 45 74 125 130 139 147 131 141 160 141 142 160 150 145 142 145 150 145 148 164 189 198 183 206 257 281 194 166 169 147 151 158 160 161
305 299 294 290 287 285 284 282 283 283 282 282 279 277 273 270 270 270 270 270 269 268 263 258 251 245 237 227 221 213 205 207 213 208 171 146 187 222 259 307 323 355 8 49 58 70 64 49 53 60 50 46 44 34 37 66 111 125 127 133 129 132 160 154 152 161 154 155 153 154 157 147 150 169 169 187 206 236 257 229 103 145 149 139 148 150 156 162
297 293 291 288 285 283 281 281 282 283 283 284 284 284 282 280 279 275 275 274 273 274 270 265 258 249 239 227 214 199 195 189 188 197 187 165 161 206 238 285 326 11 53 70 63 76 62 55 61 63 59 50 46 39 38 64 82 90 118 127 138 141 169 173 164 161 156 162 159 155 155 147 159 177 167 185 206 218 228 146 80 145 149 141 150 148 151 155
290 288 288 286 286 283 281 280 279 281 281 281 283 284 287 286 285 285 283 281 278 277 275 275 268 255 243 226 209 196 187 164 152 170 180 181 170 192 226 261 290 48 101 91 61 75 59 53 62 60 62 55 43 42 42 64 80 76 96 117 134 137 151 164 169 168 164 170 165 159 159 155 170 182 177 189 189 197 216 196 16 166 163 153 155 152 148 147
290 288 286 285 285 284 283 281 279 279 278 279 281 282 285 285 286 288 285 285 281 281 280 277 277 267 250 225 211 200 179 159 159 176 177 180 172 185 223 237 220 95 126 106 65 72 58 44 52 49 56 56 37 36 43 56 77 86 86 106 129 129 138 158 174 174 173 181 178 174 169 161 170 174 172 172 168 201 222 199 214 179 178 169 160 156 153 152
295 292 289 287 284 282 282 280 279 278 277 278 279 280 281 282 284 284 284 285 282 284 283 279 283 275 262 236 213 194 173 172 195 214 202 180 171 206 221 219 204 130 132 105 66 61 48 34 37 39 54 51 27 25 46 65 78 94 88 88 106 119 130 149 168 175 181 186 185 186 179 166 172 164 151 151 158 194 211 192 199 178 180 179 171 162 156 156
300 297 293 291 286 284 281 279 279 276 276 275 276 277 277 279 280 282 281 281 281 282 284 281 283 281 278 257 209 175 174 183 199 212 202 186 189 217 217 210 194 145 146 119 72 52 32 23 19 33 97 36 4 4 47 83 80 87 89 81 79 81 83 91 147 172 188 189 189 190 180 169 174 161 146 155 164 188 202 189 198 212 173 165 165 158 159 166
302 298 295 294 289 286 282 280 279 276 277 274 274 274 273 276 275 278 278 279 282 278 282 281 280 285 281 283 199 177 187 187 194 204 198 190 194 212 222 210 186 155 163 141 88 55 38 33 15 51 167 343 327 331 32 106 82 70 79 77 78 75 72 62 114 162 180 189 193 192 185 180 176 164 154 158 167 183 196 191 193 212 162 150 160 156 173 193
299 297 295 293 290 288 284 281 278 275 275 273 274 272 269 272 271 274 275 277 280 276 281 279 279 283 270 340 135 182 201 196 198 204 199 193 193 209 220 209 192 171 168 156 115 60 50 52 20 192 203 278 291 313 12 121 104 66 55 54 81 86 91 75 64 141 172 186 192 193 196 198 184 171 162 163 173 184 190 195 196 199 182 180 183 169 187 204
293 292 291 290 289 287 286 283 280 276 274 272 272 271 269 269 267 269 269 272 276 276 278 275 277 273 255 186 174 196 205 204 212 216 208 200 197 210 214 208 202 181 175 179 161 76 42 11 239 198 215 262 258 280 313 148 166 81 7 25 94 102 117 108 74 132 167 182 188 194 205 204 187 182 176 172 179 184 185 193 202 199 186 199 206 189 199 207
288 287 287 286 285 284 285 283 281 279 275 273 271 270 270 268 267 266 265 268 270 273 273 271 273 265 259 217 206 217 214 211 219 213 214 206 196 209 210 206 208 193 192 197 175 125 94 272 243 209 212 245 263 265 258 195 196 230 345 355 154 141 23 158 148 154 171 182 185 191 205 204 189 189 186 179 178 181 183 189 196 196 191 202 212 202 207 208
284 283 283 283 282 281 281 280 281 279 277 275 273 271 271 269 268 266 264 264 265 269 270 266 270 267 262 238 225 231 235 237 227 193 216 205 190 206 210 207 208 202 209 208 198 189 196 236 242 219 208 222 254 250 243 218 210 224 284 282 227 247 289 244 211 168 178 188 187 187 192 199 193 191 190 185 180 179 183 189 192 192 196 205 209 205 211 212
281 280 279 278 279 279 279 279 278 278 277 276 275 273 271 270 268 265 263 263 262 264 266 265 268 269 261 249 238 239 250 275 263 227 228 203 186 197 208 214 215 215 223 212 208 227 219 222 226 212 204 217 243 236 229 221 218 232 241 241 237 241 249 237 219 192 189 186 184 186 186 186 185 189 194 193 189 185 184 189 192 193 198 206 210 206 213 217
279 279 277 276 275 275 276 276 276 277 276 275 275 274 272 271 268 266 264 262 260 260 263 265 262 267 263 247 233 230 242 254 252 265 266 210 181 184 202 207 202 205 215 208 208 223 226 224 212 205 202 213 232 222 212 218 225 233 228 211 222 234 235 227 223 210 193 181 177 184 188 183 172 181 195 197 198 195 188 189 192 196 199 203 211 210 214 221
278 277 276 276 274 272 272 272 274 275 275 275 274 273 272 270 268 267 265 262 260 260 262 264 261 266 258 231 215 185 175 206 245 266 277 243 186 180 192 192 182 191 220 236 222 210 212 212 208 216 213 210 226 226 217 218 226 226 213 195 213 226 231 230 229 221 200 176 175 186 191 190 177 174 189 195 197 197 196 196 194 196 201 203 209 208 215 226
280 277 274 274 271 270 269 269 271 271 274 275 271 271 270 269 270 269 267 264 262 262 262 263 257 248 230 205 189 171 149 147 233 243 260 261 215 191 180 184 201 220 242 251 216 195 203 215 223 224 207 198 210 223 226 230 239 228 202 189 222 229 235 227 212 227 221 188 177 180 182 187 174 167 184 192 191 193 201 208 201 196 201 206 206 203 213 227
285 280 276 274 270 268 267 265 267 267 270 273 271 271 268 268 271 269 268 266 266 264 261 262 258 245 233 203 183 186 178 176 232 234 229 241 222 198 179 183 194 213 228 221 200 197 209 226 228 208 192 188 200 220 236 248 258 253 238 227 237 239 245 224 201 217 218 204 186 169 169 185 175 168 188 194 192 194 200 209 206 199 202 207 209 205 211 221
294 287 281 277 273 269 266 263 262 263 264 267 270 270 267 269 270 269 269 268 266 265 263 262 261 252 232 211 201 199 193 197 221 232 219 223 214 195 183 184 186 203 214 207 210 220 224 233 227 204 195 195 204 220 236 244 251 257 249 239 236 239 250 240 219 215 207 206 197 178 185 195 180 175 196 203 199 198 201 205 206 205 205 207 209 209 210 214
302 295 288 283 278 272 268 264 259 259 260 260 263 262 264 267 268 271 274 273 265 260 261 256 257 259 230 205 205 198 196 206 214 214 209 212 210 196 185 186 189 198 209 221 227 225 233 236 218 198 201 213 225 232 242 244 245 254 245 234 236 235 242 245 226 211 209 213 210 215 221 212 203 195 205 215 211 202 202 205 207 208 207 207 210 211 210 210
308 301 295 290 285 279 272 266 259 255 254 254 255 253 256 261 264 271 279 284 276 259 256 255 255 261 239 199 202 206 205 212 216 207 203 212 211 199 190 191 196 198 209 223 223 220 225 213 190 198 220 238 250 255 260 257 254 252 235 225 237 235 234 242 223 205 211 221 212 229 253 243 225 219 215 214 212 206 202 205 209 212 211 211 213 211 211 213
316 307 300 296 293 288 280 270 259 251 249 250 252 253 258 263 268 276 286 289 286 274 261 256 250 250 240 194 203 215 212 217 223 206 203 216 210 199 195 197 201 202 210 217 217 225 217 180 177 229 244 258 269 273 268 263 264 248 221 218 229 235 243 253 234 206 208 222 215 217 245 247 233 227 218 195 193 202 199 201 205 209 212 212 213 213 216 220
322 315 308 303 297 296 290 274 257 247 246 248 254 260 269 276 280 284 290 290 291 291 270 249 245 245 232 194 200 211 208 216 223 207 210 224 217 204 198 200 207 209 215 214 215 233 226 197 215 244 250 263 269 273 267 267 270 238 211 219 232 249 261 251 234 201 197 217 220 203 223 247 236 233 224 199 198 200 194 199 203 202 204 208 213 219 221 223
325 322 317 314 307 301 296 276 253 244 243 248 259 268 277 280 280 284 292 297 299 303 280 246 240 239 224 205 199 200 209 224 222 207 215 225 226 220 204 203 211 213 213 208 214 233 231 214 227 246 256 262 263 267 262 256 254 228 214 229 240 253 258 241 224 201 197 216 223 208 209 235 241 236 227 211 209 206 199 201 203 202 201 204 212 219 223 223
328 326 322 325 322 304 298 282 249 240 239 241 251 259 257 255 267 296 299 300 303 308 301 253 218 211 220 208 200 198 208 227 214 207 216 219 221 226 217 210 214 213 208 210 225 231 230 229 238 249 258 259 263 267 254 231 235 229 228 240 248 253 259 253 236 219 217 224 224 214 214 230 257 247 230 218 214 210 212 211 205 205 204 205 209 216 222 225
331 329 324 330 332 307 300 284 240 234 231 226 226 233 242 247 245 291 299 311 309 302 314 277 201 203 204 194 202 207 212 219 204 207 216 216 216 221 224 219 218 218 210 212 227 231 231 241 245 249 251 251 256 261 248 232 242 241 237 249 258 264 269 258 242 229 220 216 227 218 212 225 261 249 227 218 218 217 219 217 210 210 208 208 210 214 220 225
332 330 325 330 333 313 302 284 242 233 225 218 223 229 235 241 189 183 208 92 258 273 283 225 181 191 192 192 205 212 215 218 213 195 206 211 215 219 225 228 221 221 217 218 229 236 237 241 249 261 262 255 253 257 247 239 249 254 256 262 258 259 266 238 225 220 205 207 234 221 208 212 250 241 217 211 220 225 225 221 215 213 213 214 215 215 218 223
333 329 326 328 328 318 305 289 241 227 216 209 219 225 219 211 186 176 187 192 206 269 260 250 215 199 209 206 206 211 215 218 216 194 200 207 214 219 225 237 231 223 224 226 234 243 244 243 248 260 267 261 256 259 250 241 249 254 258 267 264 260 254 198 183 197 197 211 238 224 212 213 231 241 219 216 227 229 216 214 213 212 214 217 217 216 219 223
331 328 327 327 326 321 305 279 227 216 210 205 210 214 207 199 186 172 165 222 237 263 243 256 234 220 231 226 216 219 218 216 212 215 215 206 208 214 216 222 224 223 230 235 239 244 246 248 246 246 254 259 259 259 246 239 244 243 247 264 272 267 251 209 164 181 190 237 256 271 226 213 218 237 222 229 256 187 176 199 216 220 213 212 210 212 217 224
331 328 328 325 324 322 301 271 227 210 207 206 206 204 200 194 194 203 209 201 196 341 300 299 272 235 230 233 238 237 226 216 210 217 229 212 205 210 212 213 213 215 228 235 239 244 243 242 240 238 244 249 252 251 239 234 235 234 242 256 258 274 238 218 178 181 198 254 258 262 246 211 218 228 239 238 218 192 175 185 211 222 208 206 207 207 212 219
334 332 330 328 328 324 298 266 225 206 204 205 204 200 196 192 210 223 226 214 7 349 344 343 310 253 223 221 231 235 229 223 209 212 225 219 210 214 214 214 216 218 226 232 237 244 245 241 237 237 240 234 234 238 235 229 223 222 233 243 238 198 83 249 268 357 235 256 262 256 251 236 219 224 253 250 197 183 173 174 185 190 186 193 204 208 212 218
339 339 336 333 333 326 303 269 221 205 204 204 203 199 196 199 223 232 239 267 324 331 343 356 329 257 222 225 228 219 222 224 216 214 220 215 210 215 216 214 217 224 232 236 238 241 246 247 233 228 232 228 225 227 226 225 225 224 225 233 236 213 169 205 223 171 208 243 264 261 254 236 204 196 217 187 171 176 173 165 167 174 183 186 198 212 221 226
347 344 340 340 344 338 316 262 219 206 204 206 207 207 207 214 232 239 263 306 333 335 335 347 340 233 215 228 231 217 223 224 218 218 224 220 215 217 217 216 216 222 229 232 235 237 243 252 244 228 233 236 231 227 223 224 232 228 220 227 237 221 208 221 240 237 227 236 263 252 230 198 182 154 146 151 157 166 162 167 177 185 191 195 209 217 223 228
355 351 351 3 8 2 355 264 220 213 212 213 216 223 224 227 236 238 288 329 339 341 338 340 349 232 213 222 228 226 230 227 218 216 222 225 226 226 222 220 219 223 230 228 228 232 238 251 257 245 245 248 242 235 225 221 223 212 210 222 228 221 220 228 246 263 253 257 237 206 151 147 159 154 157 159 159 163 162 180 190 187 187 195 208 212 215 222
4 7 22 34 30 21 21 13 229 224 228 228 231 241 244 245 249 255 287 316 324 338 341 337 339 333 244 233 243 253 242 230 219 218 221 218 224 230 226 225 226 229 239 235 230 234 239 252 258 247 252 263 251 239 229 224 221 199 199 215 221 221 226 227 235 281 263 224 221 196 156 151 158 161 169 174 174 177 182 189 174 169 184 191 195 195 198 209
14 29 46 44 34 27 26 14 314 255 251 252 252 259 262 263 267 270 288 316 331 338 337 331 331 339 360 332 310 350 322 230 217 218 222 216 221 230 227 226 229 235 242 236 232 238 241 252 260 254 267 278 238 225 221 220 223 209 204 213 217 216 217 215 217 237 238 238 232 162 157 166 173 175 177 181 185 191 193 183 173 176 191 194 191 189 198 214
23 45 44 31 24 23 21 11 348 314 284 276 279 280 281 284 285 278 299 330 340 334 320 318 321 318 336 337 317 336 354 304 257 233 226 220 222 230 230 228 231 239 241 230 231 236 234 245 256 266 283 262 193 202 211 208 212 213 215 224 223 223 225 223 225 220 212 227 168 129 154 180 192 199 195 188 191 201 197 178 178 192 202 204 208 209 214 229
23 42 28 22 32 27 16 8 7 356 343 332 324 317 315 317 305 243 343 342 332 323 315 313 315 314 324 327 320 320 316 324 330 285 250 243 231 232 238 235 234 236 235 228 231 234 226 234 245 252 267 198 185 197 207 202 201 206 214 223 223 228 240 246 242 226 214 206 138 137 132 194 198 208 205 187 191 201 193 180 187 205 209 211 223 223 219 228
12 32 31 29 35 29 20 24 47 46 32 14 353 347 348 342 337 348 346 333 317 308 314 316 310 315 327 326 323 324 306 296 311 315 310 285 244 240 246 245 241 234 226 225 229 229 222 225 240 246 231 197 201 210 209 201 200 205 210 215 216 226 240 248 242 223 222 233 168 153 147 191 194 201 197 187 190 190 182 190 203 215 217 218 228 232 228 233
1 19 36 41 38 31 28 37 50 31 13 359 346 344 344 338 334 333 324 312 302 299 312 326 318 317 330 333 331 329 314 295 294 306 317 316 294 277 277 274 256 235 220 221 226 229 225 224 236 244 236 216 216 223 218 212 218 218 211 215 219 227 234 237 244 220 207 196 157 145 138 172 181 192 193 187 187 186 186 199 211 219 225 230 241 243 241 246
335 333 3 37 50 42 36 37 30 2 348 342 339 340 341 340 340 339 323 305 298 295 300 331 350 346 343 337 335 336 326 298 287 300 308 300 309 322 333 341 265 230 220 224 226 224 223 219 225 233 235 236 243 249 233 221 221 220 212 215 219 221 227 238 250 226 160 142 142 127 120 174 165 173 185 186 189 194 198 207 217 225 229 238 251 254 258 262
316 318 326 326 16 55 36 349 329 327 330 332 330 323 315 324 348 354 347 328 307 291 292 298 299 341 352 336 325 340 356 330 299 304 310 293 282 302 339 23 214 213 209 225 232 223 216 213 217 220 227 246 251 264 236 221 220 220 214 214 214 216 232 242 239 213 170 170 173 160 164 172 165 167 179 188 199 205 210 213 219 230 235 247 262 267 273 274
326 315 306 305 325 78 228 281 303 314 325 328 326 322 299 268 331 353 358 355 328 295 297 299 280 296 343 328 304 306 346 354 332 303 291 278 266 280 336 55 113 195 188 205 243 229 212 211 218 217 205 224 239 257 220 212 215 218 214 216 217 218 233 242 241 229 195 186 192 187 167 166 171 177 183 197 209 208 209 214 220 235 247 257 266 274 284 288
348 326 297 291 295 244 231 258 294 317 322 324 332 335 320 284 293 320 328 349 349 319 312 308 274 267 294 309 305 304 308 327 336 301 279 271 259 264 325 19 315 268 213 195 205 225 214 213 222 226 227 233 240 246 225 203 218 235 222 218 218 223 236 250 262 260 230 187 190 192 172 169 178 185 192 205 214 212 214 220 225 240 256 262 266 278 301 310
1 353 322 278 266 245 235 245 263 288 313 344 356 350 339 318 306 306 304 327 0 341 316 315 275 259 274 305 323 322 308 305 312 304 289 277 259 247 258 335 295 260 217 177 187 233 238 224 220 225 235 247 253 253 245 241 268 276 250 224 214 220 236 249 261 256 230 190 177 182 182 180 183 189 198 205 210 216 221 218 219 236 251 257 263 285 323 338
4 0 349 311 270 261 248 245 253 266 283 335 11 3 1 350 338 337 319 309 331 331 308 302 277 258 267 305 336 332 309 298 300 306 308 292 271 247 235 251 286 253 206 174 185 235 271 220 206 217 233 249 262 266 265 259 260 279 277 247 223 222 233 240 252 258 237 217 194 182 187 189 184 190 199 206 212 220 219 207 207 222 232 236 248 307 335 335
9 5 358 344 305 286 272 261 259 267 282 304 358 33 7 342 335 7 360 317 314 334 339 330 294 278 270 282 328 337 321 308 305 305 302 301 304 283 255 250 249 228 214 178 179 228 263 264 225 241 239 239 288 293 273 255 247 266 282 269 246 245 238 237 254 260 232 225 215 188 183 184 182 186 191 197 205 209 207 205 209 215 217 219 236 312 342 337
16 15 9 344 312 288 253 249 240 236 263 272 139 80 16 343 317 332 6 358 357 3 8 358 309 292 289 280 284 312 321 317 311 305 297 291 304 324 303 282 234 214 214 138 132 207 239 296 342 261 242 241 295 325 293 270 263 272 270 248 245 281 289 269 265 239 209 215 212 186 179 174 171 175 178 180 184 188 197 204 207 211 212 211 227 291 330 341
14 18 19 353 301 246 200 177 169 188 211 149 142 176 10 358 326 300 292 18 27 7 340 340 327 292 283 272 260 260 266 275 284 288 286 284 284 289 294 294 237 226 234 91 89 137 210 341 5 315 255 256 276 293 304 320 318 306 282 251 255 288 295 292 280 234 215 210 185 174 177 173 166 168 176 184 183 176 174 182 184 188 193 191 200 305 314 331
9 11 14 8 344 198 187 183 188 201 203 118 211 261 324 357 328 298 266 226 228 305 310 303 310 291 271 265 261 262 268 268 264 264 263 262 265 269 268 259 237 239 258 288 27 50 44 16 7 351 316 273 269 281 302 330 347 346 338 317 304 301 294 294 290 266 252 233 199 189 183 171 166 171 182 190 187 172 156 162 179 181 185 194 223 311 299 304
Height
3179 3178 3178 3178 3178 3178 3178 3178 3178 3178 3178 3178 3177 3177 3177 3177 3177 3177 3177 3178 3178 3178 3179 3179 3180 3180 3181 3181 3182 3182 3182 3183 3183 3183 3183 3183 3183 3183 3183 3184 3183 3183 3184 3183 3184 3184 3184 3183 3182 3181 3180 3178 3178 3177 3176 3176 3177 3178 3179 3179 3179 3181 3182 3183 3183 3184 3184 3185 3185 3185 3186 3188 3189 3189 3189 3189 3188 3187 3187 3187 3187 3187 3187 3188 3189 3189 3189 3189
3178 3178 3178 3178 3177 3177 3177 3177 3177 3177 3176 3176 3176 3176 3176 3176 3176 3175 3176 3176 3176 3176 3177 3177 3178 3179 3180 3180 3181 3181 3182 3182 3183 3183 3183 3183 3183 3183 3183 3183 3184 3184 3184 3184 3184 3184 3184 3183 3182 3181 3179 3179 3178 3177 3177 3176 3177 3178 3179 3179 3180 3181 3182 3183 3183 3184 3185 3185 3185 3186 3186 3188 3189 3189 3188 3188 3188 3187 3187 3187 3187 3188 3188 3188 3189 3189 3189 3190
3177 3177 3177 3177 3177 3176 3176 3176 3176 3176 3176 3175 3175 3175 3175 3174 3174 3174 3174 3174 3174 3174 3175 3175 3176 3177 3178 3179 3180 3180 3181 3182 3182 3182 3182 3182 3182 3183 3183 3183 3183 3184 3184 3184 3184 3184 3185 3183 3181 3181 3180 3179 3178 3178 3177 3177 3178 3179 3179 3180 3180 3181 3182 3183 3183 3184 3184 3185 3185 3186 3187 3188 3189 3189 3188 3188 3188 3188 3187 3187 3187 3188 3188 3189 3189 3189 3190 3190
3177 3177 3176 3176 3176 3176 3175 3175 3175 3175 3175 3175 3174 3174 3174 3174 3173 3173 3173 3173 3173 3173 3173 3173 3174 3175 3176 3177 3178 3179 3180 3181 3181 3181 3181 3182 3182 3182 3183 3183 3183 3183 3183 3183 3183 3184 3184 3182 3181 3180 3180 3180 3179 3178 3178 3178 3179 3179 3180 3180 3180 3181 3182 3183 3184 3184 3184 3185 3186 3186 3187 3187 3188 3188 3188 3188 3188 3188 3187 3187 3188 3188 3189 3189 3189 3189 3190 3191
3176 3176 3176 3175 3175 3175 3175 3174 3174 3174 3174 3174 3173 3173 3173 3173 3173 3172 3172 3172 3172 3171 3172 3172 3172 3173 3174 3175 3177 3178 3179 3180 3180 3180 3180 3181 3182 3182 3182 3183 3183 3183 3183 3183 3183 3184 3183 3182 3181 3180 3181 3180 3179 3179 3179 3179 3179 3179 3180 3180 3181 3181 3182 3183 3184 3185 3184 3185 3186 3186 3187 3187 3188 3188 3188 3188 3188 3188 3187 3188 3188 3188 3189 3190 3190 3190 3190 3191
3176 3175 3175 3175 3175 3174 3174 3174 3173 3173 3173 3173 3172 3172 3172 3172 3172 3171 3171 3171 3171 3171 3170 3170 3170 3171 3172 3173 3175 3176 3177 3178 3179 3179 3180 3180 3181 3182 3182 3183 3183 3183 3182 3182 3183 3184 3182 3181 3181 3180 3181 3181 3180 3180 3180 3179 3179 3180 3180 3180 3181 3182 3183 3183 3184 3184 3184 3185 3186 3187 3187 3187 3188 3188 3188 3188 3188 3187 3187 3188 3188 3188 3189 3190 3191 3191 3192 3192
3175 3175 3174 3174 3174 3173 3173 3173 3173 3172 3172 3172 3171 3171 3171 3171 3171 3171 3170 3170 3170 3170 3170 3170 3169 3170 3170 3172 3173 3174 3176 3177 3178 3178 3179 3179 3180 3181 3182 3182 3183 3183 3182 3182 3183 3183 3183 3181 3181 3181 3182 3181 3182 3181 3181 3181 3180 3181 3180 3181 3182 3182 3183 3183 3184 3184 3184 3185 3186 3187 3188 3187 3188 3188 3188 3188 3187 3187 3187 3188 3189 3189 3189 3190 3191 3192 3192 3193
3174 3173 3173 3173 3173 3172 3172 3172 3172 3171 3171 3171 3170 3170 3170 3170 3170 3170 3169 3169 3169 3169 3169 3169 3169 3169 3169 3170 3172 3173 3174 3176 3176 3177 3178 3179 3179 3180 3181 3182 3182 3182 3182 3182 3183 3183 3182 3181 3181 3182 3182 3182 3182 3183 3182 3182 3181 3182 3181 3181 3182 3183 3183 3183 3183 3183 3184 3185 3186 3186 3187 3187 3188 3188 3188 3188 3187 3187 3187 3188 3189 3189 3189 3190 3191 3192 3192 3193
3173 3172 3172 3172 3171 3171 3171 3171 3171 3170 3170 3170 3169 3169 3169 3169 3169 3168 3168 3168 3168 3168 3168 3168 3168 3168 3168 3169 3170 3172 3174 3175 3175 3176 3177 3178 3178 3179 3180 3181 3182 3182 3182 3182 3182 3181 3182 3182 3181 3182 3183 3183 3183 3184 3184 3183 3182 3182 3182 3182 3183 3183 3183 3183 3183 3183 3184 3184 3185 3186 3187 3187 3188 3188 3187 3187 3187 3187 3188 3188 3189 3189 3189 3189 3190 3191 3192 3193
3171 3171 3171 3170 3170 3170 3170 3170 3169 3169 3169 3169 3168 3168 3168 3168 3168 3167 3167 3167 3167 3167 3167 3167 3167 3167 3168 3168 3170 3171 3172 3173 3174 3175 3176 3176 3177 3178 3179 3180 3181 3182 3182 3182 3182 3181 3181 3182 3182 3183 3184 3184 3184 3185 3185 3184 3183 3183 3183 3183 3183 3183 3183 3183 3183 3183 3183 3184 3184 3185 3186 3187 3188 3188 3187 3187 3187 3187 3188 3188 3189 3189 3189 3189 3189 3190 3191 3193
3170 3170 3169 3169 3169 3169 3168 3168 3168 3168 3168 3167 3167 3167 3167 3167 3167 3166 3166 3166 3166 3166 3166 3166 3166 3167 3167 3167 3169 3170 3170 3171 3172 3173 3174 3175 3176 3177 3178 3179 3180 3181 3182 3182 3182 3182 3182 3182 3182 3184 3185 3185 3186 3186 3186 3185 3184 3184 3183 3183 3183 3184 3183 3182 3182 3183 3183 3184 3184 3185 3186 3186 3187 3188 3187 3187 3187 3187 3187 3187 3188 3189 3189 3189 3190 3190 3192 3192
3169 3169 3168 3168 3167 3167 3167 3167 3167 3166 3166 3166 3166 3166 3166 3166 3165 3165 3165 3165 3165 3165 3165 3165 3165 3166 3167 3167 3168 3168 3168 3169 3170 3170 3171 3173 3175 3176 3177 3178 3179 3181 3181 3182 3182 3182 3182 3182 3184 3186 3186 3186 3186 3186 3186 3185 3184 3184 3184 3184 3183 3183 3183 3182 3182 3183 3183 3183 3184 3184 3185 3185 3187 3188 3188 3187 3187 3187 3187 3187 3188 3188 3189 3189 3190 3191 3192 3193
3168 3167 3167 3166 3166 3166 3166 3165 3165 3165 3165 3165 3165 3164 3164 3164 3164 3164 3164 3164 3164 3164 3164 3164 3164 3165 3165 3166 3166 3165 3166 3167 3168 3169 3170 3171 3173 3174 3176 3177 3178 3180 3180 3181 3182 3181 3182 3183 3185 3187 3187 3186 3186 3186 3185 3185 3184 3184 3184 3184 3184 3183 3183 3183 3182 3182 3183 3183 3183 3183 3184 3184 3185 3187 3187 3187 3187 3187 3188 3188 3188 3188 3189 3189 3191 3192 3193 3193
3166 3166 3165 3165 3165 3164 3164 3164 3164 3164 3164 3163 3163 3163 3163 3163 3163 3162 3163 3163 3162 3162 3163 3163 3163 3164 3164 3165 3164 3163 3164 3165 3166 3167 3168 3169 3171 3172 3174 3176 3177 3178 3179 3181 3181 3180 3181 3183 3184 3185 3186 3186 3186 3185 3185 3184 3184 3184 3183 3183 3183 3182 3182 3182 3182 3182 3182 3182 3182 3183 3183 3183 3184 3185 3186 3187 3187 3187 3188 3189 3189 3189 3189 3190 3191 3192 3193 3194
3165 3164 3164 3164 3163 3163 3163 3162 3162 3162 3162 3162 3162 3162 3161 3161 3161 3161 3161 3161 3161 3161 3161 3161 3162 3162 3163 3164 3163 3163 3163 3164 3166 3167 3168 3168 3169 3171 3173 3175 3176 3178 3179 3180 3180 3179 3180 3182 3182 3183 3185 3185 3185 3185 3185 3184 3183 3183 3183 3182 3182 3182 3181 3182 3181 3181 3181 3181 3182 3182 3182 3182 3183 3184 3185 3186 3187 3187 3188 3189 3189 3190 3190 3190 3191 3192 3193 3194
3163 3162 3162 3162 3162 3161 3161 3161 3161 3161 3161 3160 3160 3160 3160 3159 3159 3159 3159 3159 3159 3159 3159 3160 3160 3161 3162 3162 3162 3163 3163 3164 3165 3166 3168 3168 3168 3170 3172 3174 3175 3176 3178 3178 3179 3179 3179 3181 3181 3182 3183 3184 3184 3184 3184 3183 3182 3182 3182 3182 3181 3181 3181 3180 3180 3180 3180 3180 3180 3181 3181 3181 3182 3183 3184 3185 3186 3187 3188 3188 3189 3190 3190 3190 3191 3192 3193 3194
3160 3160 3160 3160 3160 3159 3159 3159 3159 3159 3159 3159 3159 3158 3158 3158 3157 3157 3157 3157 3158 3157 3157 3158 3159 3160 3160 3161 3162 3162 3163 3164 3164 3164 3166 3167 3168 3169 3172 3173 3175 3176 3177 3177 3178 3178 3179 3180 3180 3181 3182 3182 3182 3182 3182 3181 3180 3180 3181 3181 3180 3180 3180 3179 3179 3179 3179 3179 3179 3180 3180 3180 3181 3182 3183 3184 3185 3186 3187 3188 3189 3189 3190 3190 3191 3192 3192 3193
3158 3158 3158 3158 3158 3157 3157 3157 3157 3157 3157 3157 3157 3157 3156 3156 3155 3155 3155 3155 3156 3156 3155 3156 3157 3158 3159 3159 3160 3161 3162 3164 3164 3164 3164 3165 3167 3169 3171 3172 3174 3175 3176 3176 3177 3177 3178 3178 3179 3179 3180 3180 3179 3180 3179 3177 3176 3178 3179 3179 3179 3179 3178 3178 3178 3178 3178 3178 3178 3179 3179 3179 3180 3181 3182 3183 3184 3185 3186 3187 3188 3189 3190 3190 3191 3191 3192 3192
3156 3156 3155 3155 3155 3155 3155 3155 3155 3155 3155 3155 3155 3155 3154 3154 3153 3153 3153 3153 3154 3154 3154 3154 3155 3156 3157 3158 3159 3160 3160 3162 3163 3163 3163 3164 3165 3167 3169 3170 3172 3174 3175 3175 3175 3176 3177 3177 3177 3177 3176 3175 3175 3176 3176 3175 3177 3178 3178 3178 3178 3178 3177 3177 3177 3177 3177 3177 3177 3178 3178 3179 3179 3180 3180 3181 3183 3184 3185 3186 3187 3188 3189 3189 3190 3190 3191 3192
3154 3153 3153 3152 3152 3152 3152 3153 3153 3153 3154 3153 3153 3153 3152 3152 3152 3151 3151 3151 3152 3152 3152 3152 3153 3155 3156 3157 3157 3158 3158 3159 3161 3162 3163 3163 3164 3166 3168 3169 3170 3172 3173 3173 3174 3175 3176 3176 3175 3174 3173 3172 3173 3175 3176 3177 3178 3179 3179 3178 3177 3177 3176 3176 3176 3177 3177 3177 3177 3177 3178 3178 3179 3179 3180 3181 3182 3183 3184 3184 3185 3187 3187 3188 3189 3189 3190 3192
3152 3151 3150 3150 3150 3150 3150 3150 3151 3151 3152 3151 3151 3151 3150 3150 3150 3149 3148 3149 3150 3150 3150 3150 3150 3152 3154 3155 3155 3156 3156 3156 3158 3161 3162 3162 3163 3165 3166 3167 3168 3169 3171 3172 3173 3174 3174 3173 3171 3172 3172 3173 3175 3176 3176 3177 3178 3178 3178 3177 3177 3176 3175 3175 3176 3177 3177 3177 3177 3177 3178 3178 3178 3179 3179 3180 3180 3181 3181 3182 3183 3185 3186 3187 3188 3188 3189 3191
3150 3149 3148 3148 3147 3147 3147 3148 3149 3149 3149 3149 3149 3149 3148 3148 3148 3146 3145 3146 3148 3148 3148 3148 3148 3149 3151 3153 3153 3153 3153 3153 3154 3157 3160 3161 3162 3162 3164 3165 3166 3167 3169 3171 3171 3172 3172 3169 3167 3169 3172 3173 3174 3174 3175 3175 3176 3176 3176 3176 3176 3175 3174 3174 3175 3176 3177 3177 3177 3177 3177 3178 3178 3178 3179 3179 3179 3180 3181 3181 3182 3183 3184 3185 3186 3187 3188 3189
3148 3147 3146 3145 3145 3145 3145 3145 3146 3147 3147 3146 3146 3146 3146 3146 3146 3145 3144 3143 3143 3145 3145 3145 3146 3146 3149 3151 3151 3150 3150 3151 3152 3154 3157 3158 3159 3161 3162 3164 3165 3166 3168 3169 3169 3169 3169 3166 3165 3168 3170 3172 3171 3172 3173 3173 3174 3174 3174 3175 3175 3174 3173 3172 3173 3176 3176 3176 3176 3177 3177 3177 3177 3178 3178 3179 3180 3180 3180 3181 3182 3183 3183 3184 3185 3186 3187 3188
3146 3145 3144 3143 3143 3142 3142 3143 3144 3144 3144 3144 3144 3145 3145 3145 3144 3144 3144 3141 3140 3141 3143 3143 3142 3142 3146 3149 3149 3148 3149 3150 3150 3152 3154 3156 3158 3160 3161 3162 3164 3165 3166 3167 3168 3167 3166 3165 3166 3168 3169 3169 3169 3169 3170 3170 3171 3171 3171 3172 3173 3173 3172 3171 3172 3174 3176 3176 3176 3176 3177 3176 3175 3176 3177 3178 3178 3179 3179 3180 3181 3182 3183 3184 3185 3186 3186 3187
3145 3144 3142 3142 3141 3140 3140 3140 3141 3141 3141 3142 3142 3144 3144 3144 3144 3143 3143 3141 3138 3138 3139 3139 3138 3140 3143 3145 3145 3146 3148 3148 3149 3151 3152 3154 3156 3158 3160 3161 3163 3163 3164 3166 3167 3166 3164 3164 3167 3167 3167 3168 3167 3167 3167 3168 3170 3170 3170 3171 3171 3171 3171 3171 3172 3173 3174 3175 3174 3175 3176 3174 3173 3174 3175 3176 3176 3177 3178 3178 3179 3180 3181 3182 3183 3183 3184 3185
3144 3142 3141 3140 3139 3139 3138 3138 3138 3138 3139 3140 3141 3142 3143 3143 3143 3143 3142 3141 3137 3135 3136 3135 3136 3138 3139 3141 3142 3145 3147 3146 3147 3150 3151 3153 3155 3156 3158 3159 3160 3162 3163 3165 3166 3164 3162 3164 3165 3166 3166 3167 3166 3167 3167 3168 3168 3168 3169 3169 3170 3171 3170 3170 3171 3172 3172 3172 3171 3173 3173 3172 3171 3171 3172 3173 3174 3175 3176 3176 3177 3178 3179 3180 3180 3181 3182 3183
3142 3141 3139 3139 3138 3137 3136 3136 3136 3136 3137 3139 3140 3141 3141 3141 3142 3142 3142 3141 3137 3134 3134 3134 3135 3136 3137 3140 3141 3143 3144 3144 3146 3148 3149 3151 3153 3154 3156 3157 3158 3160 3161 3164 3164 3161 3161 3162 3163 3164 3165 3165 3165 3165 3166 3167 3166 3166 3167 3168 3169 3170 3169 3169 3170 3169 3169 3170 3171 3171 3172 3172 3170 3169 3170 3172 3173 3174 3175 3175 3176 3176 3177 3178 3178 3179 3180 3181
3141 3140 3138 3137 3137 3135 3134 3135 3134 3134 3136 3138 3139 3139 3140 3140 3141 3141 3142 3142 3137 3133 3134 3134 3135 3136 3137 3139 3140 3140 3142 3143 3145 3146 3147 3149 3151 3153 3154 3155 3157 3158 3160 3161 3159 3158 3160 3161 3161 3163 3163 3163 3163 3163 3164 3165 3164 3164 3166 3167 3168 3168 3168 3167 3168 3168 3168 3170 3170 3170 3172 3173 3170 3168 3169 3171 3171 3172 3172 3173 3174 3174 3175 3176 3176 3177 3179 3180
3140 3139 3137 3136 3135 3134 3133 3133 3133 3133 3135 3136 3137 3138 3139 3140 3140 3141 3142 3140 3135 3133 3134 3134 3135 3136 3137 3138 3138 3140 3142 3143 3144 3145 3146 3148 3150 3151 3152 3154 3156 3157 3159 3159 3157 3157 3158 3159 3160 3162 3161 3161 3161 3162 3163 3163 3162 3163 3165 3166 3167 3167 3166 3165 3165 3167 3169 3170 3168 3167 3169 3170 3168 3167 3168 3169 3169 3169 3169 3171 3173 3173 3174 3174 3175 3176 3177 3178
3139 3138 3136 3135 3134 3133 3132 3132 3132 3132 3134 3135 3136 3137 3138 3139 3139 3140 3142 3138 3134 3134 3134 3134 3135 3136 3136 3136 3137 3139 3140 3141 3143 3144 3145 3147 3148 3149 3152 3154 3156 3156 3157 3157 3157 3156 3156 3157 3158 3159 3158 3159 3159 3160 3161 3161 3161 3162 3163 3164 3165 3166 3165 3164 3164 3165 3168 3168 3166 3165 3166 3167 3166 3166 3166 3166 3167 3167 3167 3169 3171 3172 3172 3173 3174 3175 3175 3177
3138 3137 3135 3134 3133 3132 3131 3130 3130 3131 3132 3133 3135 3136 3137 3138 3139 3140 3139 3135 3133 3134 3134 3134 3135 3135 3135 3135 3136 3137 3138 3140 3142 3143 3144 3145 3147 3148 3150 3152 3154 3155 3155 3155 3155 3155 3155 3154 3154 3155 3156 3158 3158 3158 3158 3159 3159 3160 3162 3163 3164 3164 3163 3164 3164 3164 3165 3165 3164 3164 3164 3165 3165 3164 3164 3164 3165 3166 3166 3168 3169 3169 3170 3171 3172 3173 3174 3175
3137 3136 3135 3133 3132 3131 3130 3129 3129 3130 3131 3132 3134 3135 3136 3137 3138 3137 3134 3133 3133 3135 3135 3136 3136 3134 3133 3134 3135 3135 3136 3137 3139 3141 3142 3144 3145 3145 3147 3148 3150 3152 3152 3152 3153 3154 3153 3152 3152 3153 3154 3155 3156 3156 3156 3157 3157 3158 3160 3161 3162 3162 3162 3163 3163 3162 3162 3161 3161 3162 3162 3163 3163 3162 3162 3163 3164 3165 3165 3166 3168 3168 3169 3169 3170 3171 3172 3173
3136 3135 3134 3132 3131 3130 3129 3128 3129 3129 3130 3131 3133 3134 3135 3136 3135 3133 3132 3133 3134 3134 3135 3136 3135 3133 3133 3133 3133 3134 3134 3135 3137 3139 3140 3142 3143 3144 3145 3146 3148 3149 3150 3151 3152 3153 3152 3151 3151 3151 3150 3151 3153 3153 3153 3154 3155 3156 3158 3159 3160 3161 3163 3165 3164 3162 3161 3159 3159 3161 3161 3161 3161 3160 3160 3161 3162 3163 3164 3165 3166 3167 3167 3168 3168 3169 3170 3172
3135 3134 3133 3132 3130 3130 3129 3128 3128 3129 3130 3131 3132 3133 3134 3134 3132 3131 3132 3133 3133 3133 3134 3134 3133 3132 3132 3132 3131 3132 3132 3133 3135 3137 3138 3140 3142 3142 3143 3145 3146 3147 3148 3150 3151 3151 3150 3148 3147 3148 3147 3149 3150 3150 3151 3152 3154 3155 3156 3158 3158 3158 3161 3163 3162 3160 3159 3158 3158 3159 3160 3160 3159 3159 3160 3160 3161 3163 3163 3164 3165 3166 3166 3166 3166 3167 3169 3170
3134 3133 3132 3131 3130 3129 3129 3128 3129 3129 3130 3131 3132 3133 3132 3132 3131 3132 3132 3133 3132 3132 3131 3131 3131 3130 3130 3131 3131 3131 3131 3131 3133 3135 3137 3138 3139 3140 3142 3143 3145 3146 3147 3147 3148 3148 3147 3144 3144 3146 3146 3147 3148 3149 3150 3152 3153 3153 3155 3156 3157 3156 3157 3158 3158 3158 3158 3157 3157 3157 3158 3159 3159 3159 3160 3160 3161 3162 3163 3163 3163 3164 3164 3164 3165 3166 3167 3168
3134 3132 3131 3130 3130 3129 3129 3129 3129 3130 3130 3131 3132 3131 3131 3131 3132 3132 3132 3133 3133 3132 3130 3128 3128 3129 3130 3130 3131 3131 3131 3130 3131 3133 3134 3135 3137 3138 3140 3141 3142 3143 3143 3144 3144 3145 3144 3142 3142 3145 3144 3144 3146 3147 3149 3151 3151 3152 3153 3153 3154 3155 3156 3156 3157 3158 3158 3159 3157 3156 3157 3158 3159 3160 3159 3160 3160 3161 3161 3162 3162 3162 3163 3163 3164 3165 3166 3167
3133 3132 3131 3130 3130 3130 3130 3129 3130 3130 3130 3131 3131 3131 3131 3131 3132 3132 3133 3133 3133 3132 3131 3129 3128 3129 3131 3131 3131 3131 3130 3130 3131 3131 3131 3133 3133 3134 3136 3137 3138 3139 3140 3141 3142 3142 3142 3141 3140 3142 3141 3140 3143 3145 3148 3149 3150 3151 3151 3151 3152 3155 3155 3156 3157 3157 3158 3159 3156 3154 3155 3156 3156 3158 3158 3159 3159 3159 3159 3160 3161 3162 3163 3163 3163 3164 3165 3166
3133 3132 3131 3131 3131 3131 3130 3130 3130 3130 3130 3131 3131 3131 3131 3131 3132 3133 3133 3133 3132 3131 3131 3130 3129 3129 3130 3130 3129 3129 3128 3129 3130 3129 3129 3130 3129 3130 3132 3133 3134 3135 3137 3139 3140 3140 3142 3140 3138 3139 3138 3136 3138 3142 3145 3147 3149 3149 3150 3150 3152 3153 3153 3155 3156 3156 3157 3157 3155 3155 3155 3155 3155 3155 3156 3157 3158 3158 3159 3159 3160 3161 3162 3162 3163 3164 3165 3166
3134 3133 3132 3132 3131 3130 3130 3130 3130 3130 3130 3131 3131 3131 3131 3130 3131 3132 3133 3132 3131 3130 3131 3130 3129 3128 3129 3128 3128 3127 3127 3128 3130 3129 3128 3128 3127 3127 3128 3130 3131 3132 3134 3137 3137 3138 3140 3140 3137 3137 3136 3135 3136 3140 3142 3144 3146 3148 3149 3150 3151 3151 3152 3153 3153 3153 3154 3154 3154 3156 3157 3156 3155 3155 3155 3156 3157 3157 3158 3158 3159 3160 3161 3162 3162 3163 3164 3165
3134 3134 3133 3132 3131 3130 3130 3130 3130 3130 3130 3131 3131 3130 3130 3130 3130 3131 3132 3131 3130 3130 3130 3129 3128 3127 3127 3127 3127 3127 3127 3127 3128 3129 3128 3127 3127 3125 3126 3128 3128 3130 3132 3134 3135 3136 3138 3139 3136 3136 3137 3136 3137 3137 3139 3141 3143 3144 3146 3147 3148 3150 3151 3151 3151 3150 3150 3150 3151 3155 3156 3155 3154 3154 3154 3155 3156 3157 3157 3158 3158 3159 3160 3161 3161 3162 3163 3164
3133 3133 3132 3131 3131 3131 3130 3130 3130 3130 3130 3131 3131 3130 3130 3130 3129 3129 3129 3130 3129 3129 3129 3128 3127 3126 3126 3126 3126 3126 3126 3126 3126 3127 3127 3127 3127 3126 3126 3127 3127 3127 3130 3131 3132 3133 3135 3136 3135 3135 3137 3137 3135 3135 3137 3139 3140 3141 3143 3144 3146 3148 3149 3150 3149 3148 3148 3147 3148 3150 3153 3153 3152 3153 3154 3155 3155 3156 3157 3157 3157 3158 3159 3160 3161 3161 3162 3164
3132 3132 3132 3131 3131 3130 3130 3130 3130 3130 3130 3130 3130 3129 3129 3129 3128 3127 3128 3128 3127 3126 3125 3125 3126 3126 3125 3124 3125 3125 3125 3124 3124 3126 3126 3126 3126 3126 3126 3127 3125 3125 3127 3128 3128 3130 3132 3134 3134 3133 3135 3136 3136 3136 3137 3138 3139 3140 3141 3143 3145 3147 3147 3148 3147 3146 3146 3146 3146 3147 3150 3151 3151 3152 3153 3155 3155 3155 3156 3157 3157 3157 3159 3160 3161 3161 3162 3163
3132 3131 3131 3131 3131 3131 3131 3131 3130 3130 3130 3129 3128 3128 3128 3128 3128 3128 3127 3126 3125 3124 3123 3123 3124 3124 3123 3123 3123 3123 3123 3122 3122 3123 3124 3123 3123 3123 3123 3122 3120 3122 3126 3126 3126 3128 3130 3131 3132 3132 3134 3135 3136 3137 3137 3138 3139 3139 3139 3141 3143 3144 3145 3145 3145 3145 3145 3145 3146 3148 3151 3151 3151 3152 3154 3155 3155 3156 3156 3156 3157 3157 3158 3159 3160 3160 3161 3162
3132 3131 3131 3131 3130 3130 3130 3130 3129 3128 3129 3128 3127 3128 3128 3128 3128 3127 3125 3124 3123 3122 3122 3122 3122 3122 3121 3121 3121 3122 3121 3120 3120 3120 3120 3119 3120 3121 3121 3120 3119 3121 3124 3125 3124 3126 3127 3128 3129 3130 3131 3133 3134 3134 3135 3136 3137 3137 3137 3139 3140 3142 3142 3143 3143 3144 3144 3144 3145 3146 3149 3150 3151 3152 3154 3155 3155 3156 3156 3156 3157 3157 3158 3158 3158 3159 3159 3160
3132 3131 3130 3130 3130 3129 3129 3129 3128 3129 3128 3127 3127 3127 3126 3126 3126 3125 3124 3123 3122 3122 3121 3121 3121 3120 3119 3119 3120 3121 3121 3120 3119 3118 3117 3117 3118 3119 3119 3119 3118 3118 3119 3121 3123 3124 3124 3125 3126 3127 3128 3131 3132 3133 3133 3134 3135 3135 3136 3137 3139 3140 3140 3140 3142 3142 3142 3143 3143 3143 3145 3148 3151 3152 3153 3154 3155 3155 3155 3155 3156 3156 3157 3157 3157 3157 3158 3157
3132 3131 3130 3129 3129 3129 3128 3129 3129 3129 3128 3127 3126 3126 3125 3125 3124 3123 3123 3122 3121 3121 3120 3120 3119 3119 3118 3119 3119 3120 3119 3119 3118 3116 3115 3115 3116 3116 3117 3118 3117 3116 3117 3119 3121 3122 3123 3124 3124 3125 3126 3127 3129 3131 3132 3132 3134 3134 3134 3136 3137 3138 3138 3138 3140 3140 3140 3141 3143 3143 3144 3146 3149 3150 3151 3153 3154 3154 3154 3154 3154 3155 3156 3156 3156 3156 3156 3156
3131 3130 3129 3128 3128 3128 3129 3129 3129 3129 3128 3127 3127 3126 3126 3125 3124 3123 3122 3122 3121 3120 3120 3120 3119 3119 3120 3121 3120 3118 3117 3117 3116 3115 3114 3113 3114 3114 3115 3117 3118 3117 3117 3119 3121 3122 3122 3122 3123 3123 3124 3126 3127 3129 3131 3132 3133 3133 3133 3134 3136 3136 3137 3137 3138 3139 3139 3140 3142 3143 3143 3144 3146 3148 3149 3151 3152 3153 3153 3152 3153 3154 3155 3155 3155 3155 3155 3155
3130 3129 3128 3128 3127 3127 3128 3128 3127 3127 3127 3127 3126 3126 3126 3125 3123 3122 3122 3122 3122 3121 3120 3121 3121 3121 3123 3123 3120 3118 3116 3114 3114 3114 3114 3113 3113 3113 3114 3116 3118 3118 3118 3120 3122 3122 3121 3121 3122 3123 3123 3125 3126 3128 3129 3131 3132 3132 3132 3133 3134 3135 3135 3136 3137 3137 3137 3137 3139 3140 3141 3142 3143 3145 3147 3149 3151 3152 3152 3152 3153 3153 3154 3154 3154 3155 3155 3155
3129 3128 3127 3126 3126 3125 3125 3125 3126 3126 3125 3125 3125 3125 3124 3123 3123 3123 3122 3121 3121 3121 3121 3121 3120 3121 3122 3122 3120 3118 3116 3115 3114 3114 3114 3114 3114 3114 3114 3116 3117 3117 3117 3119 3120 3120 3120 3121 3122 3122 3122 3123 3124 3125 3127 3128 3130 3131 3131 3131 3132 3133 3133 3134 3135 3135 3135 3136 3136 3138 3139 3141 3142 3144 3146 3149 3150 3151 3152 3152 3152 3153 3153 3153 3154 3154 3154 3154
3130 3128 3126 3125 3124 3124 3124 3124 3124 3124 3123 3123 3124 3123 3122 3122 3122 3122 3122 3121 3121 3121 3120 3119 3118 3119 3119 3119 3118 3117 3116 3116 3115 3114 3114 3115 3115 3116 3116 3117 3118 3117 3118 3118 3119 3120 3121 3120 3120 3120 3121 3121 3123 3124 3125 3126 3128 3128 3129 3129 3130 3130 3131 3132 3132 3133 3134 3134 3135 3136 3138 3141 3142 3144 3146 3148 3149 3150 3151 3152 3152 3152 3153 3153 3153 3153 3154 3154
3129 3128 3127 3125 3124 3124 3124 3123 3122 3121 3120 3121 3122 3122 3121 3121 3120 3121 3122 3122 3121 3120 3119 3118 3117 3117 3117 3116 3115 3115 3115 3115 3115 3115 3115 3115 3116 3117 3117 3118 3118 3118 3118 3118 3119 3120 3121 3120 3119 3119 3119 3120 3122 3123 3124 3125 3125 3126 3127 3128 3129 3129 3130 3131 3131 3131 3131 3132 3134 3136 3137 3138 3140 3142 3145 3147 3147 3148 3149 3151 3152 3152 3152 3153 3153 3153 3153 3154
3127 3127 3126 3125 3124 3124 3124 3123 3121 3120 3119 3120 3121 3121 3121 3120 3119 3120 3121 3121 3121 3119 3118 3117 3116 3115 3114 3113 3113 3112 3112 3112 3113 3113 3114 3115 3115 3116 3116 3117 3118 3118 3118 3118 3117 3118 3120 3120 3120 3119 3119 3119 3121 3123 3123 3123 3124 3125 3126 3126 3127 3128 3128 3129 3130 3130 3131 3131 3131 3131 3133 3135 3138 3140 3143 3145 3145 3146 3148 3150 3151 3151 3152 3153 3153 3153 3153 3153